| time (UTC) | temp F | wind direction | speed MPH | gust MPH | rain 1hr in | rain 24hr in | rain mn in | humidity % | barometer mb |
| 20260505014525 | 54 | 205 | 5.0 | 7.0 | 0.00 | 0.02 | 0.00 | 96 | |
| 20260505013522 | 53 | 202 | 5.0 | 8.0 | 0.00 | 0.02 | 0.00 | 99 | |
| 20260505012527 | 53 | 218 | 5.0 | 7.0 | 0.00 | 0.02 | 0.00 | 99 | |
| 20260505011523 | 53 | 201 | 5.0 | 8.0 | 0.00 | 0.02 | 0.00 | 99 | |
| 20260505010528 | 53 | 201 | 6.0 | 9.0 | 0.00 | 0.02 | 0.00 | 99 | |
| 20260505005525 | 52 | 217 | 8.0 | 12.0 | 0.00 | 0.02 | 0.00 | 99 | |
| 20260505004530 | 52 | 236 | 10.0 | 13.0 | 0.00 | 0.02 | 0.00 | 99 | |
| 20260505003525 | 53 | 217 | 7.0 | 11.0 | 0.00 | 0.02 | 0.00 | 99 | |
| 20260505002543 | 53 | 241 | 8.0 | 12.0 | 0.00 | 0.02 | 0.00 | 99 | |
| 20260505001526 | 53 | 238 | 6.0 | 10.0 | 0.00 | 0.02 | 0.00 | 99 | |
| 20260505000523 | 52 | 247 | 7.0 | 10.0 | 0.00 | 0.02 | 0.00 | 99 | |
| 20260504235528 | 52 | 249 | 5.0 | 9.0 | 0.00 | 0.02 | 0.02 | 99 | |
| 20260504234524 | 53 | 247 | 4.0 | 6.0 | 0.00 | 0.02 | 0.02 | 99 | |
| 20260504233529 | 52 | 246 | 5.0 | 6.0 | 0.00 | 0.03 | 0.02 | 99 | |
| 20260504232526 | 52 | 243 | 7.0 | 10.0 | 0.00 | 0.04 | 0.02 | 99 | |
| 20260504231521 | 52 | 217 | 4.0 | 7.0 | 0.00 | 0.06 | 0.02 | 99 | |
| 20260504230526 | 52 | 231 | 4.0 | 6.0 | 0.00 | 0.07 | 0.02 | 99 | |
| 20260504225524 | 52 | 248 | 4.0 | 9.0 | 0.00 | 0.08 | 0.02 | 99 | |
| 20260504224528 | 52 | 272 | 5.0 | 7.0 | 0.00 | 0.10 | 0.02 | 99 | |
| 20260504223524 | 51 | 258 | 5.0 | 6.0 | 0.00 | 0.15 | 0.02 | 99 | |
| 20260504222529 | 51 | 255 | 5.0 | 7.0 | 0.00 | 0.17 | 0.02 | 99 | |
| 20260504221525 | 51 | 255 | 5.0 | 8.0 | 0.00 | 0.16 | 0.02 | 99 | |
| 20260504220522 | 51 | 268 | 6.0 | 9.0 | 0.00 | 0.17 | 0.02 | 99 | |
| 20260504215526 | 51 | 263 | 5.0 | 7.0 | 0.00 | 0.17 | 0.02 | 99 | |
| 20260504214523 | 51 | 272 | 6.0 | 6.0 | 0.00 | 0.18 | 0.02 | 99 | |
| 20260504213529 | 51 | 284 | 4.0 | 5.0 | 0.00 | 0.18 | 0.02 | 99 | |
| 20260504212523 | 51 | 286 | 4.0 | 6.0 | 0.00 | 0.19 | 0.02 | 99 | |
| 20260504211550 | 51 | 278 | 5.0 | 7.0 | 0.00 | 0.19 | 0.02 | 99 | |
| 20260504210526 | 51 | 271 | 6.0 | 8.0 | 0.00 | 0.19 | 0.02 | 99 | |
| 20260504205542 | 51 | 267 | 6.0 | 7.0 | 0.00 | 0.19 | 0.02 | 99 | |
| 20260504204526 | 51 | 278 | 7.0 | 10.0 | 0.00 | 0.19 | 0.02 | 99 | |
| 20260504203523 | 51 | 280 | 6.0 | 9.0 | 0.00 | 0.19 | 0.02 | 99 | |
| 20260504202527 | 51 | 287 | 6.0 | 8.0 | 0.00 | 0.20 | 0.02 | 99 | |
| 20260504201523 | 51 | 289 | 5.0 | 7.0 | 0.00 | 0.20 | 0.02 | 99 | |
| 20260504200529 | 51 | 291 | 6.0 | 8.0 | 0.00 | 0.20 | 0.02 | 99 | |
| 20260504195525 | 51 | 291 | 6.0 | 8.0 | 0.00 | 0.20 | 0.02 | 99 | |
| 20260504194542 | 51 | 283 | 5.0 | 7.0 | 0.00 | 0.20 | 0.02 | 99 | |
| 20260504193527 | 51 | 276 | 5.0 | 8.0 | 0.00 | 0.20 | 0.02 | 99 | |
| 20260504192523 | 51 | 269 | 6.0 | 8.0 | 0.00 | 0.20 | 0.02 | 99 | |
| 20260504191528 | 51 | 282 | 5.0 | 7.0 | 0.00 | 0.20 | 0.02 | 99 | |
| 20260504190524 | 51 | 283 | 5.0 | 8.0 | 0.00 | 0.20 | 0.02 | 99 | |
| 20260504185528 | 51 | 280 | 6.0 | 9.0 | 0.00 | 0.20 | 0.02 | 99 | |
| 20260504184524 | 51 | 278 | 5.0 | 6.0 | 0.00 | 0.20 | 0.02 | 99 | |
| 20260504183543 | 51 | 278 | 5.0 | 7.0 | 0.00 | 0.20 | 0.02 | 99 | |
| 20260504182527 | 51 | 283 | 5.0 | 6.0 | 0.00 | 0.20 | 0.02 | 99 | |
| 20260504181542 | 51 | 280 | 6.0 | 7.0 | 0.00 | 0.20 | 0.02 | 99 | |
| 20260504180527 | 51 | 277 | 6.0 | 8.0 | 0.00 | 0.20 | 0.02 | 99 | |
| 20260504175524 | 51 | 280 | 5.0 | 8.0 | 0.00 | 0.20 | 0.02 | 99 | |
| 20260504174549 | 51 | 281 | 6.0 | 8.0 | 0.00 | 0.20 | 0.02 | 99 | |
| 20260504173525 | 51 | 275 | 6.0 | 8.0 | 0.00 | 0.20 | 0.02 | 98 | |
| 20260504172521 | 51 | 270 | 6.0 | 9.0 | 0.00 | 0.20 | 0.02 | 98 | |
| 20260504171548 | 51 | 283 | 6.0 | 8.0 | 0.00 | 0.20 | 0.02 | 98 | |
| 20260504170522 | 50 | 279 | 7.0 | 9.0 | 0.00 | 0.20 | 0.02 | 98 | |
| 20260504150522 | 52 | 288 | 8.0 | 11.0 | 0.00 | 0.20 | 0.02 | 97 | |
| 20260504140525 | 51 | 280 | 7.0 | 10.0 | 0.00 | 0.20 | 0.02 | 98 | |
| 20260504130529 | 51 | 281 | 6.0 | 8.0 | 0.00 | 0.20 | 0.02 | 96 | |
| 20260504110527 | 52 | 263 | 8.0 | 10.0 | 0.00 | 0.20 | 0.02 | 91 | |
| 20260504100522 | 53 | 257 | 9.0 | 13.0 | 0.00 | 0.20 | 0.02 | 90 | |
| 20260504081525 | 56 | 255 | 20.0 | 26.0 | 0.00 | 0.20 | 0.02 | 81 | |
| 20260504080521 | 56 | 253 | 17.0 | 21.0 | 0.00 | 0.20 | 0.02 | 78 | |
| 20260504050523 | 58 | 248 | 15.0 | 20.0 | 0.01 | 0.20 | 0.02 | 88 | |
| 20260504045528 | 58 | 250 | 15.0 | 21.0 | 0.01 | 0.20 | 0.02 | 86 | |
| 20260504044525 | 57 | 243 | 14.0 | 21.0 | 0.01 | 0.20 | 0.02 | 90 | |
| 20260504043521 | 56 | 243 | 11.0 | 15.0 | 0.00 | 0.20 | 0.01 | 90 | |
| 20260504042526 | 56 | 212 | 6.0 | 9.0 | 0.00 | 0.19 | 0.01 | 88 | |
| 20260504041523 | 56 | 246 | 14.0 | 21.0 | 0.00 | 0.19 | 0.01 | 90 | |
| 20260504040527 | 58 | 262 | 17.0 | 24.0 | 0.00 | 0.19 | 0.01 | 86 | |
| 20260504035523 | 59 | 260 | 17.0 | 23.0 | 0.00 | 0.19 | 0.01 | 84 | |
| 20260504034528 | 59 | 253 | 20.0 | 28.0 | 0.00 | 0.19 | 0.01 | 82 | |
| 20260504033525 | 59 | 264 | 20.0 | 30.0 | 0.00 | 0.19 | 0.01 | 82 | |
| 20260504032521 | 59 | 269 | 21.0 | 32.0 | 0.00 | 0.19 | 0.01 | 84 | |
| 20260504031525 | 59 | 274 | 23.0 | 32.0 | 0.00 | 0.19 | 0.01 | 84 | |
| 20260504030523 | 58 | 285 | 21.0 | 27.0 | 0.00 | 0.19 | 0.01 | 88 | |
| 20260504025527 | 58 | 280 | 21.0 | 29.0 | 0.00 | 0.19 | 0.01 | 89 | |
| 20260504024524 | 58 | 276 | 21.0 | 29.0 | 0.00 | 0.19 | 0.01 | 87 | |
| 20260504023529 | 58 | 270 | 21.0 | 28.0 | 0.00 | 0.19 | 0.01 | 84 | |
| 20260504022525 | 58 | 268 | 23.0 | 28.0 | 0.00 | 0.19 | 0.01 | 88 | |
| 20260504021520 | 57 | 277 | 24.0 | 31.0 | 0.00 | 0.19 | 0.01 | 91 | |
| 20260504020526 | 57 | 277 | 21.0 | 29.0 | 0.00 | 0.19 | 0.01 | 92 | |
| 20260504015522 | 57 | 278 | 22.0 | 29.0 | 0.00 | 0.19 | 0.01 | 93 |